COSMOS 1275 DEB, 14739

Orbit data source: Space-Track

COSMOS 1275 DEB, 14739 is space debris in LEO originally from a launch on Thu, 04 Jun 1981 UTC launched from the Plesetsk Missile And Space Complex (PKMTR). Debris objects in space refer to the collection of defunct objects orbiting the Earth. Examples of debris include non-operational satellites, rocket bodies, and fragments generated from explosions, collisions, or faulty payload assembly.

Loading next visibility...
Identifier
14739, 1981-053JU
Orbit
LEO
Country
Flag of CISCIS
Related business
Manufacturer
Unknown
Mission
Spacecraft
Bus & Motor
Unknown
Mass
Unknown
Launch date (UTC)
1981-06-04 (44 years ago)
Launch vehicle
Unknown
Launch site
Plesetsk Missile And Space Complex (PKMTR)
Object type
Payload
Rocket body
Debris
Shape & HBR
Unknown shape, 0.1 m
Radar Cross Section
Small (<0.1 m²)

Expand to show TLE details & history
Last TLE update: 19 hours ago

TLE from 19 hours ago
0 COSMOS 1275 DEB
1 14739U 81053JU  25286.32666705  .00003632  00000-0  23239-2 0  9994
2 14739  83.0085  31.9672 0058579 204.4092 155.4304 14.02317700227348
Epoch: 2025-10-13T07:50Z
TLE epoch observation values (Epoch: 2025-10-13T07:50:24.033Z)
Latitude
-0.00002°
Longitude
-107.76399°
Altitude
927.469 km
Speed
7.368 km/s
True Right ascension
02h 07m 52s
True Declination
0° 00' 00"
Sunlit
Object was in full shadow at epoch
Visualization orbit readout
Latitude
Unknown
Longitude
Unknown
Altitude
Unknown
Speed
Unknown
Apparent Right ascension
Unknown
Apparent Declination
Unknown
Sunlit
N/A
Visualization observer readout
Local Sidereal Time
21:07:18
Azimuth
Unknown
Elevation
Unknown
Doppler factor
Unknown
Orbital elements
Apogee altitude
925.423 km
Perigee altitude
840.354 km
Semi-major axis
7,261.026 km
Eccentricity
0.00586
Inclination
83.0085°
RAAN
31.9672°
Arg. of periapsis
204.4092°
True anomaly
155.70766°
Mean anomaly
155.4304°
Eccentric anomaly
155.56922°
Mean motion
3.50789 °/min
Orbital period
102.63 mins
BSTAR
0.0023239
Loading maneuver chart data...
Computing Atmospheric mass density...
Loading historical data...
Loading historical data...
Loading historical data...
Loading historical data...
Loading historical data...
Loading historical data...
Loading historical data...

Documentation

Showing up to 5 results
|